Overview Statistics Trail Chart Weather Telemetry Raw packets
 

This is the latest recevied weather packets stored in our database for station/object WX6HNX-2. If no packets are shown the sender has not sent any weather packets the latest 10 day(s).

<< 6 7 8 9 10 11 12 >>
Time Temp. Humidity Pressure Rain* Wind** Luminosity Snow
1788544443 23.33° C 54% 1014.6 hPa 0 mm - - -
1788544203 23.33° C 54% 1014.7 hPa 0 mm - - -
1788543963 22.78° C 55% 1014.7 hPa 0 mm - - -
1788543723 22.78° C 55% 1014.7 hPa 0 mm - - -
1788543243 23.33° C 53% 1014.6 hPa 0 mm - - -
1788542972 23.89° C 51% 1014.5 hPa 0 mm - - -
1788542732 23.89° C 51% 1014.5 hPa 0 mm - - -
1788542252 23.33° C 52% 1014.4 hPa 0 mm - - -
1788541772 22.78° C 51% 1014.3 hPa 0 mm - - -
1788541532 22.78° C 52% 1014.3 hPa 0 mm - - -
1788541292 22.78° C 53% 1013.4 hPa 0 mm - - -
1788541052 22.78° C 52% 1013.3 hPa 0 mm - - -
1788540812 22.78° C 51% 1013.3 hPa 0 mm - - -
1788540572 22.78° C 52% 1013.3 hPa 0 mm - - -
1788540332 22.78° C 51% 1013.2 hPa 0 mm - - -
1788540092 22.22° C 52% 1013.2 hPa 0 mm - - -
1788539355 21.67° C 53% 1013.3 hPa 0 mm - - -
1788539115 21.11° C 53% 1013.3 hPa 0 mm - - -
1788538875 21.11° C 54% 1013.2 hPa 0 mm - - -
1788538395 20.56° C 56% 1013.4 hPa 0 mm - - -
1788537675 20° C 56% 1013.5 hPa 0 mm - - -
1788537435 19.44° C 57% 1013.5 hPa 0 mm - - -
1788537195 19.44° C 57% 1013.5 hPa 0 mm - - -
1788536955 19.44° C 57% 1013.5 hPa 0 mm - - -
1788536715 19.44° C 57% 1013.4 hPa 0 mm - - -

* Rain latest hour (hover to see other rain measurements)
** Current wind speed in m/s (hover to see current wind gust speed)